Miscellaneous Local Product
Issued by NWS North Platte, NE

Home | Current Version | Previous Version | Text Only | Print | Product List | Glossary On
Versions: 1 2 3 4 5 6 7 8 9 10 11 12 13 14 15 16 17 18 19 20 21 22 23 24 25 26 27 28 29 30 31 32 33 34 35 36 37 38 39 40 41 42 43 44 45 46 47 48 49 50
005
AXUS43 KLBF 212310
MISLBF


WESTERN AND NORTH CENTRAL NEBRASKA HOURLY WEATHER ROUNDUP
NATIONAL WEATHER SERVICE NORTH PLATTE NE
600 PM CDT SAT OCT 21 2017

NOTE: "FAIR" INDICATES FEW OR NO CLOUDS BELOW 12,000 FEET WITH NO
SIGNIFICANT WEATHER AND/OR OBSTRUCTIONS TO VISIBILITY.

NOTE: STATIONS NOT REPORTING VARIABLES SUCH AS SKY/WEATHER OR
PRESSURE ARE PROVIDED BY RAWS AND APRS NETWORKS AND ARE NOT UNDER
NATIONAL WEATHER SERVICE QUALITY CONTROL.

...OBSERVATIONS IN AND NEAR THE EASTERN PANHANDLE OF NEBRASKA...

CITY           SKY/WX    TMP DP  RH WIND       PRES   REMARKS
PINE RIDGE     CLEAR     57  12  17 W21G30    29.92R
GORDON         FAIR      56  14  18 W18G29    29.92R
CHADRON        PTCLDY    57  11  16 NW14      29.93R
ALLIANCE       CLEAR     55  10  16 NW20G28   29.96R HAZE
SIDNEY         SUNNY     54  13  19 NW22G30   30.01R
CRESCENT LAKE    N/A     56  16  20 NW14G23     N/A
$$

...OBSERVATIONS IN NORTHERN NEBRASKA AND FAR SOUTHERN SOUTH DAKOTA...

CITY           SKY/WX    TMP DP  RH WIND       PRES   REMARKS
WINNER         FAIR      58  32  37 NW23      29.86R
VALENTINE      CLEAR     59  26  28 W13       29.90R
THEDFORD       CLEAR     58  24  27 NW13G24   29.93R
AINSWORTH      CLEAR     56  31  38 W8        29.90R
O`NEILL        CLEAR     56  33  42 NW14      29.89R
ORD            CLEAR     56  35  45 NW12      29.90R
BROKEN BOW     CLEAR     57  36  45 NW7       29.92R
VALENTINE NWR    N/A     57  31  37 NW8G17      N/A
HALSEY           N/A     59  23  25 W12G26      N/A
BUTTE            N/A     55  35  47 NW12G22     N/A
CHAMBERS         N/A     55  35  46 N3          N/A
EWING            N/A     54  41  62 W5          N/A
$$

...OBSERVATIONS IN SOUTHWEST NEBRASKA AND FAR NORTHEAST COLORADO...

CITY           SKY/WX    TMP DP  RH WIND       PRES   REMARKS
WRAY           FAIR      59  10  14 NW18G29   30.00R
HOLYOKE        FAIR      61  16  17 NW15G22   30.00R
IMPERIAL       CLEAR     60  17  18 NW13      29.98R
OGALLALA       CLEAR     59  19  21 NW14      29.97R
NORTH PLATTE   CLEAR     59  26  28 NW15      29.95R
MCCOOK         CLEAR     62  22  21 NW22      29.96R
LEXINGTON      CLEAR     58  35  41 NW10      29.94R
STAPLETON        N/A     57  24  28 W3G12       N/A
GOTHENBURG       N/A     59  31  35 NW8         N/A
CALLAWAY         N/A     58  36  43 NW12        N/A
$$

...OBSERVATIONS IN CENTRAL LINCOLN COUNTY AREA...

CITY           SKY/WX    TMP DP  RH WIND       PRES   REMARKS
N.P. AIRPORT   CLEAR     59  26  28 NW15      29.95R
N.P. DOWNTOWN    N/A     58  26  29 NW6         N/A
N.P. SOUTHEAST   N/A     59  24  26 NW6G13      N/A
N.P. HILLCREST   N/A     59  23  25 NW13G21     N/A
$$

...SOME OBSERVATIONS FROM AROUND THE REGION...

CITY           SKY/WX    TMP DP  RH WIND       PRES   REMARKS
DENVER         MOSUNNY   51   7  16 W17       30.07R
LIMON          SUNNY     52   2  13 NW20G26   30.06R
ASPEN          MOSUNNY   40  15  36 CALM      30.20R
LARAMIE        CLOUDY    37  14  38 W21       30.08R WCI  26
CASPER         SUNNY     49   6  17 W15       29.98S
CHEYENNE       MOSUNNY   44  11  26 W24G36    30.06R
SCOTTSBLUFF    MOSUNNY   57  13  17 W22G30    29.98R
GRAND ISLAND   CLEAR     55  39  54 NW14      29.93R
OMAHA          MOCLDY    60  43  53 NW16      29.84R
SIOUX FALLS    CLOUDY    53  42  66 NW13      29.79R
PIERRE         CLOUDY    56  35  45 NW17      29.82R
RAPID CITY     CLEAR     54  18  24 NW17G26   29.89R
BISMARCK       CLOUDY    52  37  56 W20G26    29.72R
KANSAS CITY    CLOUDY    73  65  75 SE14      29.78F
HILL CITY      CLEAR     62  35  36 N7        29.96R
WICHITA        LGT RAIN  61  59  93 E8        29.80S
DODGE CITY     PTCLDY    58  31  35 N15       29.96R
OKLAHOMA CITY  CLOUDY    75  65  70 SE13      29.79F
DALLAS         MOCLDY    88  63  43 S21       29.80S
AMARILLO       MOSUNNY   60  34  37 N20G26    29.96R
$$




USA.gov is the U.S. government's official web portal to all federal, state and local government web resources and services.